Location: Albuquerque Trailhead
(34.7934°N, 106.3736°W)
Time: 05:34:24
(UTC+00:00)

CZ-2D R/B - Pass Details

Date: 20 June 2021
Orbit: 551 x 639 km, 97.9° (Epoch: 29 July)

Event Time Altitude Azimuth Distance (km) Brightness Sun altitude
Rises 10:02:08 0° 20° (NNE) 2,829 8.2 -18.5°
Reaches altitude 10° 10:04:26 10° 27° (NNE) 1,909 7.2 -18.2°
Maximum altitude 10:08:21 41° 99° (E) 835 4.5 -17.6°
Enters shadow 10:11:17 16° 165° (SSE) 1,529 5.3 -17.2°
